Location: D�derode
(51.8092°N, 10.1065°E)
Time: 16:59:30
(UTC+00:00)

BREEZE-M DEB (TANK) - Pass Details

Date: 23 April 2021
Orbit: 315 x 13085 km, 49.6° (Epoch: 11 May)

Event Time Altitude Azimuth Distance (km) Brightness Sun altitude
Rises 19:41:32 0° 228° (SW) 16,186 10.4 -10.3°
Reaches altitude 10° 20:00:33 10° 229° (SW) 12,869 9.8 -12.6°
Maximum altitude 20:39:18 65° 160° (SSE) 2,734 6.0 -16.9°
Drops below altitude 10° 20:47:16 10° 79° (E) 3,203 6.4 -17.6°
Sets 20:48:56 0° 76° (ENE) 3,739 6.8 -17.8°
